Вернуться в каталог

EPIC ATHENA

АктивенНаукаSSO
NORAD 64871·PAYLOAD·🇺🇸 United States

Запущен Jul 23, 2025 с Vandenberg Space Force Base

Loading…

Ближайшие Пролёты (ближайшие 24 часа)

TLE

СвежийSource: Space-Track

Эпоха: Sep 14, 2026, 14:25 UTC

1 64871U 25154C   26257.60100059  .00001416  00000-0  13682-3 0  9991
2 64871  97.6583 319.2652 0005401 317.2392  42.8408 14.94364998 62361

Отслеживайте EPIC ATHENA в реальном времени с AllMySat

Download on the App Store